Printer-friendly version

IAU Minor Planet Center

Minor Planet Center

MPEC 2003-P07 : 2003 OR14

The following Minor Planet Electronic Circular may be linked-to from your own Web pages, but must not otherwise be redistributed electronically.


Read MPEC 2003-P06 Read MPEC 2003-P08


M.P.E.C. 2003-P07                                Issued 2003 Aug. 3, 23:48 UT

     The Minor Planet Electronic Circulars contain information on unusual
         minor planets and routine data on comets.  They are published
   on behalf of Commission 20 of the International Astronomical Union by the
          Minor Planet Center, Smithsonian Astrophysical Observatory,
                          Cambridge, MA 02138, U.S.A.

             Prepared using the Tamkin Foundation Computer Network

                              MPC@CFA.HARVARD.EDU
          URL http://cfa-www.harvard.edu/iau/mpc.html  ISSN 1523-6714

                                   2003 OR14

Observations:
     K03O14R* C2003 07 22.32821 21 44 15.12 +09 03 37.2          19.2        644
     K03O14R  C2003 07 22.35366 21 44 14.20 +09 03 43.0          19.5        644
     K03O14R  C2003 07 22.37644 21 44 13.35 +09 03 48.1          19.2        644
     K03O14R  C2003 07 29.32470 21 39 33.46 +09 22 59.8          19.2        704
     K03O14R  C2003 07 29.33520 21 39 32.96 +09 23 01.1          19.1        704
     K03O14R  C2003 07 29.34573 21 39 32.47 +09 23 02.5          19.7        704
     K03O14R  C2003 07 29.35630 21 39 31.99 +09 23 02.9          19.4        704
     K03O14R  C2003 08 02.99824 21 35 42.57 +09 27 38.0          17.6 R      J95
     K03O14R  C2003 08 03.01118 21 35 41.82 +09 27 38.0          18.3 R      J95
     K03O14R  C2003 08 03.02827 21 35 40.91 +09 27 37.7          18.6 R      J95
     K03O14R  C2003 08 03.93227 21 34 52.73 +09 27 40.9          18.7 R      J95
     K03O14R  C2003 08 03.93973 21 34 52.39 +09 27 40.8          18.3 R      J95
     K03O14R  C2003 08 03.95271 21 34 51.65 +09 27 41.7          17.9 R      J95
     K03O14R  C2003 08 03.96055 21 34 51.21 +09 27 41.2          17.8 R      J95

Observer details:
644 Palomar Mountain/NEAT.  Observers R. Bambery, E. Helin, S. Pravdo,
    M. Hicks, K. Lawrence, R. Thicksten.  1.2-m Schmidt + CCD.
704 Lincoln Laboratory ETS, New Mexico.  Observers M. Blythe, F. Shelly,
    M. Bezpalko, R. Huber, L. Manguso, S. Adams, D. Torres, T. Brothers,
    S. Partridge.  Measurers J. Stuart, R. Sayer, J. Evans, P. Hopman.  1.0-m
    f/2.15 reflector + CCD.
J95 Great Shefford.  Observer P. Birtwhistle.  0.30-m f/6.3 Schmidt-Cassegrain
    + CCD.

Orbital elements:
2003 OR14
Epoch 2003 July 20.0 TT = JDT 2452840.5                 MPC
M 311.16302              (2000.0)            P               Q
n   0.24581379     Peri.  211.67294     +0.45641184     -0.88186824
a   2.5238598      Node   211.62745     +0.85620014     +0.47147080
e   0.4967407      Incl.   13.03862     +0.24209412     -0.00486693
P   4.01           H   15.4           G   0.15
From 14 observations 2003 July 22-Aug. 3.

Ephemeris:
2003 OR14                a,e,i = 2.52, 0.50, 13                  q = 1.2702
Date    TT    R. A. (2000) Decl.     Delta      r     Elong.  Phase     V
2003 07 30    21 39.04   +09 24.2    1.244    2.172   147.8    14.4    18.4
2003 08 09    21 30.05   +09 22.8    1.152    2.112   154.3    12.0    18.1
2003 08 19    21 19.37   +08 45.6    1.081    2.051   156.8    11.2    17.8
2003 08 29    21 08.25   +07 31.5    1.032    1.989   153.7    13.0    17.7
2003 09 08    20 58.33   +05 46.2    1.005    1.927   146.4    16.8    17.7
2003 09 18    20 51.12   +03 40.7    0.997    1.865   137.3    21.4    17.8
2003 09 28    20 47.70   +01 27.7    1.005    1.803   127.9    26.0    17.9
2003 10 08    20 48.69   -00 40.5    1.024    1.742   118.8    30.2    18.0
2003 10 18    20 54.19   -02 34.9    1.051    1.682   110.4    33.7    18.0
2003 10 28    21 03.99   -04 09.9    1.081    1.623   102.8    36.7    18.1
2003 11 07    21 17.80   -05 21.7    1.113    1.566    96.0    39.0    18.2
2003 11 17    21 35.18   -06 08.8    1.144    1.511    89.9    40.9    18.2
2003 11 27    21 55.74   -06 30.4    1.173    1.460    84.6    42.3    18.2
2003 12 07    22 19.13   -06 26.5    1.200    1.413    79.9    43.4    18.2
2003 12 17    22 44.97   -05 57.8    1.225    1.371    75.9    44.1    18.2
2003 12 27    23 12.96   -05 05.7    1.247    1.335    72.4    44.6    18.2
2004 01 06    23 42.81   -03 52.2    1.269    1.307    69.6    44.8    18.2
2004 01 16    00 14.25   -02 20.4    1.292    1.286    67.3    44.9    18.2
2004 01 26    00 47.03   -00 33.9    1.316    1.274    65.4    44.7    18.2
2004 02 05    01 20.93   +01 22.7    1.344    1.270    63.9    44.2    18.3
2004 02 15    01 55.66   +03 23.8    1.377    1.276    62.8    43.5    18.3
2004 02 25    02 31.02   +05 24.1    1.417    1.291    61.9    42.6    18.4
2004 03 06    03 06.71   +07 17.8    1.465    1.314    61.1    41.4    18.4
2004 03 16    03 42.43   +08 59.6    1.523    1.344    60.3    40.0    18.5

Gareth V. Williams           (C) Copyright 2003 MPC           M.P.E.C. 2003-P07

Read MPEC 2003-P06 Read MPEC 2003-P08


Our Web policy. Index to the CBAT/MPC/ICQ pages.


Valid HTML 4.01!